TimeAKDT,TemperatureF,Dew PointF,Humidity,Sea Level PressureIn,VisibilityMPH,Wind Direction,Wind SpeedMPH,Gust SpeedMPH,PrecipitationIn,Events,Conditions,WindDirDegrees,DateUTC
12:53 AM,57.0,52.0,83,30.12,10.0,NE,3.5,-,N/A,,Overcast,50,2013-08-21 08:53:00
1:53 AM,57.0,51.1,81,30.11,10.0,NE,5.8,-,N/A,,Overcast,50,2013-08-21 09:53:00
2:53 AM,57.0,52.0,83,30.10,10.0,NE,3.5,-,N/A,,Overcast,40,2013-08-21 10:53:00
3:53 AM,55.9,52.0,87,30.08,10.0,Calm,Calm,-,N/A,,Mostly Cloudy,0,2013-08-21 11:53:00
4:53 AM,55.0,51.1,86,30.07,10.0,NE,4.6,-,N/A,,Scattered Clouds,40,2013-08-21 12:53:00
5:53 AM,54.0,51.1,90,30.06,10.0,Calm,Calm,-,N/A,,Clear,0,2013-08-21 13:53:00
6:53 AM,55.0,51.1,86,30.05,10.0,Calm,Calm,-,N/A,,Partly Cloudy,0,2013-08-21 14:53:00
7:53 AM,57.9,52.0,81,30.04,10.0,Calm,Calm,-,N/A,,Mostly Cloudy,0,2013-08-21 15:53:00
8:53 AM,59.0,53.1,81,30.01,10.0,NNE,3.5,-,N/A,,Partly Cloudy,20,2013-08-21 16:53:00
9:53 AM,61.0,52.0,72,30.00,10.0,NNE,8.1,-,N/A,,Mostly Cloudy,30,2013-08-21 17:53:00
10:53 AM,63.0,53.1,70,29.98,10.0,North,8.1,-,N/A,,Overcast,10,2013-08-21 18:53:00
11:53 AM,64.0,53.1,67,29.96,10.0,North,4.6,-,N/A,,Overcast,10,2013-08-21 19:53:00
12:53 PM,59.0,55.9,90,29.95,9.0,North,3.5,-,0.02,Rain,Light Rain,360,2013-08-21 20:53:00
1:53 PM,59.0,55.0,87,29.93,10.0,North,3.5,-,0.01,,Overcast,350,2013-08-21 21:53:00
2:53 PM,57.9,55.9,93,29.92,4.0,WNW,3.5,-,0.03,Rain,Rain,290,2013-08-21 22:53:00
3:07 PM,57.2,55.4,94,29.92,1.8,Calm,Calm,-,0.04,Rain,Rain,0,2013-08-21 23:07:00
3:28 PM,57.2,55.4,94,29.91,1.2,Calm,Calm,-,0.17,Rain,Heavy Rain,0,2013-08-21 23:28:00
3:37 PM,55.4,55.4,100,29.91,2.0,Calm,Calm,-,0.21,Rain,Rain,0,2013-08-21 23:37:00
3:48 PM,55.4,55.4,100,29.90,4.0,NE,5.8,-,0.23,Rain,Light Rain,40,2013-08-21 23:48:00
3:53 PM,55.9,54.0,93,29.89,7.0,NE,10.4,-,0.23,Rain,Light Rain,40,2013-08-21 23:53:00
4:38 PM,55.4,53.6,94,29.88,2.5,NE,5.8,-,0.06,Rain,Rain,50,2013-08-22 00:38:00
4:45 PM,55.4,53.6,94,29.88,5.0,Variable,6.9,-,0.07,Rain,Light Rain,0,2013-08-22 00:45:00
4:53 PM,55.9,54.0,93,29.88,6.0,Variable,3.5,-,0.08,Rain,Light Rain,0,2013-08-22 00:53:00
5:53 PM,55.9,54.0,93,29.87,10.0,Calm,Calm,-,0.01,,Overcast,0,2013-08-22 01:53:00
6:53 PM,55.9,55.0,97,29.86,10.0,NNE,3.5,-,0.00,,Overcast,20,2013-08-22 02:53:00
7:53 PM,55.9,55.0,97,29.85,10.0,North,9.2,-,N/A,,Overcast,10,2013-08-22 03:53:00
8:53 PM,55.9,55.0,97,29.85,10.0,NNE,10.4,-,N/A,,Overcast,30,2013-08-22 04:53:00
9:53 PM,57.0,55.0,93,29.86,10.0,NNE,3.5,-,N/A,,Overcast,30,2013-08-22 05:53:00
10:53 PM,57.0,55.0,93,29.86,9.0,NNE,4.6,-,0.01,Rain,Light Rain,30,2013-08-22 06:53:00
11:02 PM,55.4,55.4,100,29.86,6.0,NNE,3.5,-,0.00,Rain,Light Rain,30,2013-08-22 07:02:00
11:10 PM,55.4,55.4,100,29.86,7.0,Calm,Calm,-,0.00,Rain,Light Rain,0,2013-08-22 07:10:00
11:33 PM,57.2,55.4,94,29.87,3.0,Calm,Calm,-,0.03,Rain,Light Rain,0,2013-08-22 07:33:00
11:53 PM,55.9,55.0,97,29.87,10.0,Calm,Calm,-,0.04,,Overcast,0,2013-08-22 07:53:00